Location: *
(46.1333°S, 161.2167°W)
Time: 08:56:27
(UTC+00:00)

Cosmos 2298 Rocket - Pass Details

Date: 31 October 2020
Orbit: 777 x 783 km, 74.0° (Epoch: 25 November)

Event Time Altitude Azimuth Distance (km) Brightness Sun altitude
Exits shadow 10:34:25 55° 123° (ESE) 955 4.5 -29.5°
Drops below altitude 10° 10:38:48 10° 153° (SSE) 2,375 7.3 -29.5°
Sets 10:41:14 0° 155° (SSE) 3,311 8.3 -29.5°
